Regional Weather Roundup
Issued by NWS Sterling, VA

Home | Current Version | Previous Version | Graphics & Text | Print | Product List | Glossary On
Versions: 1 2 3 4 5 6 7 8 9 10 11 12 13 14 15 16 17 18 19 20 21 22 23 24 25 26 27 28 29 30 31 32 33 34 35 36 37 38 39 40 41 42 43 44 45 46 47 48 49 50
000
ASUS41 KLWX 221610
RWRLWX

REGIONAL WEATHER ROUNDUP
NATIONAL WEATHER SERVICE BALTIMORE MD/WASHINGTON DC
1100 AM EST SAT NOV 22 2014

Note: "FAIR" indicates few or no clouds below 12,000 feet
with no significant weather and/or obstructions to visibility.
 TC=TEMPERATURE CELSIUS

 * =Non NWS site. Station does not report precipitation (e.g. rain,
    snow, etc.), thunder, or fog.

DCZ001-MDZ009-015-VAZ040>042-051-053>054-221700-
WASHINGTON METRO

CITY           SKY/WX    TMP DP  RH WIND       PRES   REMARKS
WASHINGTON NAT MOSUNNY   42  17  36 S10       30.49F
DULLES         MOSUNNY   38  15  39 SW13      30.45F
ANDREWS AFB    SUNNY     41  15  34 SW14      30.47F
FT BELVOIR     SUNNY     40  17  39 VRB6      30.48F
QUANTICO       SUNNY     42  21  43 S15       30.50F
COLLEGE PARK*  SUNNY     41  16  36 S10G17    30.48F
LEESBURG*      SUNNY     37  19  48 S9        30.46F
MANASSAS*      SUNNY     41  16  36 SW10      30.47F
GAITHERSBURG*  SUNNY     39  16  38 S12       30.48F

$$

MDZ006>007-011-014-221700-
BALTIMORE METRO

CITY           SKY/WX    TMP DP  RH WIND       PRES   REMARKS
BWI AIRPORT    MOSUNNY   39  14  36 SW9G16    30.46F
MD SCIENCE CTR   N/A     39  14  36 MISG      30.47F
ANNAPOLIS      SUNNY     40  14  34 SW10G17   30.49F
FORT MEADE*    SUNNY     39  16  38 SW9G16    30.49F

$$

MDZ012-015-019>023-221700-
MARYLAND EASTERN SHORE

CITY           SKY/WX    TMP DP  RH WIND       PRES   REMARKS
OCEAN CITY     SUNNY     41  16  36 SW14G22   30.53F
SALISBURY      SUNNY     45  19  35 S13       30.52F
BAY BRIDGE AP*   N/A     41  16  36 S13G20    30.49F
CAMBRIDGE*     SUNNY     43  19  39 SW10G17   30.51S

$$

MDZ017>025-221700-
SOUTHERN MARYLAND

CITY           SKY/WX    TMP DP  RH WIND       PRES   REMARKS
PATUXENT RIVER MOSUNNY   42  15  33 S10       30.51F
ST INIGOES     SUNNY     42  16  34 SW15G21   30.52F
LEONARDTOWN*   SUNNY     41  14  33 SW8G18    30.52F

$$

MDZ003>005-221700-
NORTH CENTRAL MARYLAND

CITY           SKY/WX    TMP DP  RH WIND       PRES   REMARKS
FREDERICK*     SUNNY     43  12  28 SW13      30.47F
HAGERSTOWN APT SUNNY     36   9  32 S9        30.40F WCI  29
WESTMINSTER*   SUNNY     37  12  35 S10       30.41F

$$

MDZ501>502-221700-
WESTERN MARYLAND

CITY           SKY/WX    TMP DP  RH WIND       PRES   REMARKS
OAKLAND*       CLOUDY    39 -24   6 SW14G22   30.29S
CUMBERLAND*    MOSUNNY   32  16  51 CALM      30.42F

$$

VAZ025>031-221700-
SHENANDOAH VALLEY

CITY           SKY/WX    TMP DP  RH WIND       PRES   REMARKS
WINCHESTER*    SUNNY     39   3  22 SW3       30.40F
FRONT ROYAL*   FAIR      41  14  33 CALM      30.39F
LURAY*         FAIR      46  19  34 SW14      30.39F
NEW MARKET*    FAIR      40  16  37 W5        30.40S
STAUNTON*      SUNNY     47  10  22 SW15      30.41F
WAYNESBORO*    FAIR      43  11  27 CALM      30.39F

$$

WVZ021-048>050-054>055-221700-
EASTERN WEST VIRGINIA PANHANDLE

CITY           SKY/WX    TMP DP  RH WIND       PRES   REMARKS
MARTINSBURG    SUNNY     38  12  34 VRB5      30.41F
PETERSBURG*    SUNNY     37  13  37 CALM      30.37F

$$

VAZ036>039-050-221700-
CENTRAL FOOTHILLS

CITY           SKY/WX    TMP DP  RH WIND       PRES   REMARKS
CHARLOTTESVILL SUNNY     41  14  33 S15       30.44F
CULPEPER*      SUNNY     43  14  31 S10G20    30.45F
ORANGE*        SUNNY     43  14  31 S13G24    30.46F
GORDONSVILLE*  FAIR      41  14  33 SW20G28   30.44F
WARRENTON*     FAIR      43  22  43 SW13G21   30.45F

$$

VAZ055>057-221700-
NORTH AND CENTRAL PIEDMONT

CITY           SKY/WX    TMP DP  RH WIND       PRES   REMARKS
FREDERICKSBRG* SUNNY     44  15  32 SW16G22   30.49F
STAFFORD*      SUNNY     42  11  27 S7        30.52F

$$

NCZ024-NYZ072-PAZ021-071-VAZ022-071-221700-
OTHER REGIONAL OBSERVATIONS

CITY           SKY/WX    TMP DP  RH WIND       PRES   REMARKS
NEW YORK CITY  SUNNY     35  10  35 SW5       30.44F
PHILADELPHIA   SUNNY     38  17  42 SW18      30.49F WCI  28
PITTSBURGH     FRZ RAIN  35  26  69 S7        30.27F
ROANOKE        PTSUNNY   38  12  34 SE3       30.48F
RICHMOND       PTSUNNY   43  15  32 SW13      30.53F
RALEIGH        MOSUNNY   44  14  29 VRB3      30.56F

$$

ANZ530>537-221700-
MARINE OBSERVATIONS

STATION/POSITION TIME  TEMP    WIND        PRES
                       AIR SEA DIR/SP/G
                 (UTC) (F)     (DEG/KT/KT) (MB)
THOMAS PT LIGHT  1600   38 46  210/ 16/ 18 1033.5F
BALT KEY BRIDGE  1600   38     210/ 12/ 16 1032.2F
COVE POINT       1600   39     220/ 18/ 20 1033.1F
LEWISETTA        1600   41 42  220/ 13/ 17 1033.2F
SOLOMONS ISLAND  1600      48                N/A
PINEY POINT      1600          230/ 12/ 15   N/A

$$




USA.gov is the U.S. government's official web portal to all federal, state and local government web resources and services.